,

(GMT )
Prerov

Weather History for LKPO - March, 2013

Change the Weather History Date:

Wednesday, March 6, 2013

  Actual Average Record
Temperature  
Mean Temperature 49 °F -  
Max Temperature 57 °F - - ()
Min Temperature 41 °F - - ()
Degree Days  
Heating Degree Days 16    
Moisture  
Dew Point 32 °F    
Average Humidity 54    
Maximum Humidity 76    
Minimum Humidity 46    
Precipitation  
Precipitation 0.00 in - - ()
Sea Level Pressure  
Sea Level Pressure 29.81 in    
Wind  
Wind Speed 9 mph ()    
Max Wind Speed 21 mph    
Max Gust Speed 30 mph    
Visibility 6.2 miles    
Events      
T = Trace of Precipitation, MM = Missing Value Source: Averaged Metar Reports

Daily Weather History Graph

Daily Weather History Graph

Search for Another Location

Airport or City:

Trip Planner

Search our weather history database for the weather conditions in past years. The results will help you decide how hot, cold, wet, or windy it might be!

Date:

Astronomy

Mar. 06, 2013 Rise Set
Actual Time 6:22 AM CET 5:41 PM CET
Civil Twilight 5:50 AM CET 6:13 PM CET
Nautical Twilight 5:14 AM CET 6:50 PM CET
Astronomical Twilight 4:36 AM CET 7:27 PM CET
Moon 2:39 AM CET (3/6) 11:40 AM CET (3/6)
Length of Visible Light 12h 22m
Length of Day
11h 18m
Waning Crescent, 33% of the Moon is Illuminated
Mar 6
Waning Crescent
Mar 11
New
Mar 19
First Quarter
Mar 27
Full
Apr 3
Last Quarter

Hourly Weather History & Observations

Time (CET) Temp. Windchill Dew Point Humidity Pressure Visibility Wind Dir Wind Speed Gust Speed Precip Events Conditions
12:00 AM 41.0 °F 35.2 °F 23.0 °F 49% 29.95 in - South 9.2 mph - N/A   Clear
1:00 AM 42.8 °F 37.0 °F 23.0 °F 46% 29.95 in - South 10.4 mph - N/A   Clear
2:00 AM 41.0 °F 37.1 °F 24.8 °F 53% 29.92 in - SSW 5.8 mph - N/A   Clear
3:00 AM 42.8 °F 39.3 °F 24.8 °F 49% 29.89 in - South 5.8 mph - N/A   Clear
4:00 AM 44.6 °F 39.7 °F 24.8 °F 46% 29.89 in - South 9.2 mph - N/A   Clear
5:00 AM 42.8 °F 40.1 °F 24.8 °F 49% 29.89 in - South 4.6 mph - N/A   Clear
6:00 AM 42.8 °F 40.1 °F 26.6 °F 53% 29.86 in - SSW 4.6 mph - N/A   Clear
7:00 AM 42.8 °F 40.1 °F 26.6 °F 53% 29.86 in - SSW 4.6 mph - N/A   Clear
8:00 AM 44.6 °F 42.2 °F 28.4 °F 53% 29.86 in - SSW 4.6 mph - N/A   Clear
9:00 AM 48.2 °F - 30.2 °F 50% 29.86 in - South 11.5 mph - N/A   Clear
10:00 AM 50.0 °F - 32.0 °F 50% 29.83 in - SSW 20.7 mph - N/A   Clear
11:00 AM 51.8 °F - 33.8 °F 50% 29.83 in - South 18.4 mph - N/A   Clear
12:00 PM 53.6 °F - 33.8 °F 47% 29.80 in - South 20.7 mph - N/A   Clear
1:00 PM 55.4 °F - 37.4 °F 51% 29.80 in - South 20.7 mph 29.9 mph N/A   Clear
2:00 PM 57.2 °F - 37.4 °F 48% 29.77 in 6.2 mi South 15.0 mph - N/A   Scattered Clouds
2:38 PM 55.4 °F - 37.4 °F 51% 29.74 in 6.2 mi South 16.1 mph 26.5 mph N/A   Scattered Clouds
3:00 PM 55.4 °F - 37.4 °F 51% 29.74 in 6.2 mi South 16.1 mph - N/A   Scattered Clouds
4:00 PM 53.6 °F - 37.4 °F 54% 29.74 in 6.2 mi SSE 13.8 mph - N/A   Mostly Cloudy
5:00 PM 51.8 °F - 35.6 °F 54% 29.74 in 6.2 mi SSE 11.5 mph - N/A   Mostly Cloudy
6:00 PM 50.0 °F - 35.6 °F 58% 29.74 in 6.2 mi South 11.5 mph - N/A   Overcast
7:00 PM 50.0 °F - 35.6 °F 58% 29.74 in 6.2 mi South 8.1 mph - N/A   Mostly Cloudy
8:00 PM 50.0 °F - 37.4 °F 62% 29.71 in 6.2 mi South 10.4 mph - N/A   Partly Cloudy
9:00 PM 48.2 °F - 37.4 °F 66% 29.71 in 6.2 mi South 6.9 mph - N/A   Partly Cloudy
10:00 PM 46.4 °F 43.5 °F 39.2 °F 76% 29.71 in 6.2 mi South 5.8 mph - N/A   Partly Cloudy
11:00 PM 46.4 °F 43.5 °F 39.2 °F 76% 29.68 in - South 5.8 mph - N/A   Clear